| time (UTC) | temp F | wind direction | speed MPH | gust MPH | rain 1hr in | rain 24hr in | rain mn in | humidity % | barometer mb |
| 20260903202515 | 92 | 107 | 0.0 | 2.0 | 0.00 | 0.00 | 0.00 | 8 | 1013.6 |
| 20260903194614 | 92 | 175 | 7.0 | 12.0 | 0.00 | 0.00 | 0.00 | 8 | 1014.2 |
| 20260903193631 | 92 | 105 | 2.0 | 5.0 | 0.00 | 0.00 | 0.00 | 10 | 1014.2 |
| 20260903193513 | 92 | 110 | 5.0 | 7.0 | 0.00 | 0.00 | 0.00 | 9 | 1014.3 |
| 20260903192516 | 91 | 191 | 6.0 | 10.0 | 0.00 | 0.00 | 0.00 | 9 | 1014.6 |
| 20260903191515 | 90 | 209 | 3.0 | 5.0 | 0.00 | 0.00 | 0.00 | 11 | 1014.6 |
| 20260903190514 | 91 | 198 | 1.0 | 4.0 | 0.00 | 0.00 | 0.00 | 11 | 1014.8 |
| 20260903185613 | 90 | 112 | 2.0 | 4.0 | 0.00 | 0.00 | 0.00 | 11 | 1015.0 |
| 20260903184713 | 89 | 240 | 1.0 | 6.0 | 0.00 | 0.00 | 0.00 | 11 | 1015.2 |
| 20260903183714 | 88 | 321 | 3.0 | 5.0 | 0.00 | 0.00 | 0.00 | 13 | 1015.6 |
| 20260903182813 | 88 | 270 | 3.0 | 4.0 | 0.00 | 0.00 | 0.00 | 14 | 1015.5 |
| 20260903181831 | 87 | 247 | 1.0 | 2.0 | 0.00 | 0.00 | 0.00 | 13 | 1015.5 |
| 20260903180914 | 88 | 265 | 0.0 | 2.0 | 0.00 | 0.00 | 0.00 | 15 | 1015.9 |
| 20260903175929 | 87 | 239 | 2.0 | 3.0 | 0.00 | 0.00 | 0.00 | 14 | 1015.8 |
| 20260903174915 | 87 | 156 | 6.0 | 8.0 | 0.00 | 0.00 | 0.00 | 15 | 1016.0 |
| 20260903174014 | 87 | 202 | 0.0 | 1.0 | 0.00 | 0.00 | 0.00 | 17 | 1016.0 |
| 20260903173015 | 86 | 184 | 0.0 | 4.0 | 0.00 | 0.00 | 0.00 | 16 | 1016.0 |
| 20260903172014 | 87 | 214 | 2.0 | 4.0 | 0.00 | 0.00 | 0.00 | 17 | 1016.0 |
| 20260903171015 | 85 | 202 | 1.0 | 3.0 | 0.00 | 0.00 | 0.00 | 17 | 1016.0 |
| 20260903170014 | 84 | 237 | 0.0 | 3.0 | 0.00 | 0.00 | 0.00 | 17 | 1016.0 |
| 20260903165016 | 83 | 195 | 1.0 | 3.0 | 0.00 | 0.00 | 0.00 | 18 | 1016.2 |
| 20260903164914 | 83 | 197 | 2.0 | 4.0 | 0.00 | 0.00 | 0.00 | 18 | 1016.1 |
| 20260903163915 | 82 | 225 | 0.0 | 0.0 | 0.00 | 0.00 | 0.00 | 17 | 1016.2 |
| 20260903161014 | 79 | 247 | 0.0 | 0.0 | 0.00 | 0.00 | 0.00 | 19 | 1016.4 |
| 20260903160014 | 78 | 282 | 1.0 | 1.0 | 0.00 | 0.00 | 0.00 | 18 | 1016.5 |
| 20260903155029 | 79 | 337 | 0.0 | 0.0 | 0.00 | 0.00 | 0.00 | 18 | 1016.6 |
| 20260903154115 | 79 | 337 | 1.0 | 1.0 | 0.00 | 0.00 | 0.00 | 17 | 1016.7 |
| 20260903153113 | 78 | 337 | 1.0 | 1.0 | 0.00 | 0.00 | 0.00 | 19 | 1016.6 |
| 20260903152131 | 75 | 337 | 0.0 | 1.0 | 0.00 | 0.00 | 0.00 | 22 | 1016.8 |
| 20260903151114 | 74 | 320 | 0.0 | 2.0 | 0.00 | 0.00 | 0.00 | 23 | 1016.7 |
| 20260903150113 | 74 | 360 | 0.0 | 1.0 | 0.00 | 0.00 | 0.00 | 25 | 1016.7 |
| 20260903145114 | 72 | 360 | 0.0 | 0.0 | 0.00 | 0.00 | 0.00 | 27 | 1016.8 |
| 20260903144115 | 69 | 360 | 0.0 | 0.0 | 0.00 | 0.00 | 0.00 | 28 | 1016.7 |
| 20260903143114 | 66 | 270 | 0.0 | 0.0 | 0.00 | 0.00 | 0.00 | 29 | 1016.7 |
| 20260903142114 | 64 | 270 | 0.0 | 0.0 | 0.00 | 0.00 | 0.00 | 32 | 1016.7 |
| 20260903141115 | 63 | 260 | 2.0 | 3.0 | 0.00 | 0.00 | 0.00 | 36 | 1016.7 |
| 20260903140129 | 62 | 337 | 0.0 | 0.0 | 0.00 | 0.00 | 0.00 | 40 | 1016.5 |
| 20260903135128 | 61 | 337 | 0.0 | 0.0 | 0.00 | 0.00 | 0.00 | 41 | 1016.6 |
| 20260903134128 | 60 | 337 | 0.0 | 0.0 | 0.00 | 0.00 | 0.00 | 41 | 1016.5 |
| 20260903133115 | 60 | 337 | 0.0 | 0.0 | 0.00 | 0.00 | 0.00 | 42 | 1016.4 |
| 20260903133012 | 60 | 337 | 0.0 | 0.0 | 0.00 | 0.00 | 0.00 | 41 | 1016.3 |
| 20260903132112 | 60 | 337 | 0.0 | 0.0 | 0.00 | 0.00 | 0.00 | 40 | 1016.2 |
| 20260903131116 | 61 | 337 | 0.0 | 0.0 | 0.00 | 0.00 | 0.00 | 35 | 1016.2 |
| 20260903130212 | 62 | 337 | 0.0 | 1.0 | 0.00 | 0.00 | 0.00 | 31 | 1016.0 |
| 20260903130129 | 62 | 337 | 1.0 | 2.0 | 0.00 | 0.00 | 0.00 | 32 | 1016.1 |
| 20260903125229 | 61 | 302 | 4.0 | 5.0 | 0.00 | 0.00 | 0.00 | 35 | 1016.1 |
| 20260903124214 | 61 | 315 | 0.0 | 2.0 | 0.00 | 0.00 | 0.00 | 37 | 1016.0 |
| 20260903122328 | 62 | 292 | 0.0 | 0.0 | 0.00 | 0.00 | 0.00 | 34 | 1016.0 |
| 20260903120313 | 61 | 22 | 0.0 | 1.0 | 0.00 | 0.00 | 0.00 | 36 | 1016.0 |
| 20260903114330 | 62 | 337 | 0.0 | 0.0 | 0.00 | 0.00 | 0.00 | 35 | 1016.0 |
| 20260903113414 | 63 | 337 | 0.0 | 0.0 | 0.00 | 0.00 | 0.00 | 31 | 1015.9 |
| 20260903112414 | 63 | 337 | 0.0 | 1.0 | 0.00 | 0.00 | 0.00 | 30 | 1015.9 |
| 20260903111512 | 63 | 22 | 0.0 | 0.0 | 0.00 | 0.00 | 0.00 | 29 | 1015.8 |
| 20260903105515 | 64 | 36 | 1.0 | 4.0 | 0.00 | 0.00 | 0.00 | 29 | 1015.8 |
| 20260903104531 | 64 | 321 | 2.0 | 3.0 | 0.00 | 0.00 | 0.00 | 29 | 1015.7 |
| 20260903103613 | 65 | 360 | 0.0 | 0.0 | 0.00 | 0.00 | 0.00 | 30 | 1015.7 |
| 20260903102712 | 66 | 22 | 4.0 | 5.0 | 0.00 | 0.00 | 0.00 | 29 | 1015.6 |
| 20260903102613 | 66 | 346 | 2.0 | 4.0 | 0.00 | 0.00 | 0.00 | 29 | 1015.7 |
| 20260903101711 | 66 | 295 | 3.0 | 4.0 | 0.00 | 0.00 | 0.00 | 26 | 1015.7 |
| 20260903100713 | 66 | 337 | 2.0 | 3.0 | 0.00 | 0.00 | 0.00 | 29 | 1015.8 |
| 20260903095730 | 66 | 360 | 1.0 | 2.0 | 0.00 | 0.00 | 0.00 | 28 | 1015.7 |
| 20260903094814 | 66 | 337 | 1.0 | 3.0 | 0.00 | 0.00 | 0.00 | 28 | 1015.6 |
| 20260903093814 | 67 | 225 | 0.0 | 0.0 | 0.00 | 0.00 | 0.00 | 28 | 1015.6 |
| 20260903092831 | 69 | 225 | 0.0 | 0.0 | 0.00 | 0.00 | 0.00 | 25 | 1015.5 |
| 20260903091915 | 70 | 180 | 0.0 | 0.0 | 0.00 | 0.00 | 0.00 | 21 | 1015.4 |
| 20260903091814 | 71 | 180 | 0.0 | 0.0 | 0.00 | 0.00 | 0.00 | 21 | 1015.5 |
| 20260903090913 | 72 | 157 | 0.0 | 0.0 | 0.00 | 0.00 | 0.00 | 18 | 1015.4 |
| 20260903085914 | 73 | 150 | 1.0 | 3.0 | 0.00 | 0.00 | 0.00 | 17 | 1015.3 |
| 20260903084914 | 74 | 157 | 0.0 | 1.0 | 0.00 | 0.00 | 0.00 | 15 | 1015.3 |
| 20260903084012 | 75 | 112 | 0.0 | 1.0 | 0.00 | 0.00 | 0.00 | 15 | 1015.5 |
| 20260903083929 | 75 | 112 | 0.0 | 2.0 | 0.00 | 0.00 | 0.00 | 14 | 1015.5 |
| 20260903081015 | 74 | 85 | 3.0 | 4.0 | 0.00 | 0.00 | 0.00 | 17 | 1015.4 |
| 20260903080013 | 73 | 90 | 3.0 | 3.0 | 0.00 | 0.00 | 0.00 | 19 | 1015.3 |
| 20260903075030 | 73 | 225 | 0.0 | 0.0 | 0.00 | 0.00 | 0.00 | 18 | 1015.4 |
| 20260903074114 | 75 | 74 | 4.0 | 6.0 | 0.00 | 0.00 | 0.00 | 16 | 1015.3 |
| 20260903073212 | 75 | 238 | 3.0 | 4.0 | 0.00 | 0.00 | 0.00 | 17 | 1015.3 |
| 20260903072213 | 75 | 90 | 2.0 | 2.0 | 0.00 | 0.00 | 0.00 | 14 | 1015.2 |
| 20260903071230 | 76 | 80 | 2.0 | 3.0 | 0.00 | 0.00 | 0.00 | 16 | 1015.2 |
| 20260903070314 | 76 | 90 | 2.0 | 3.0 | 0.00 | 0.00 | 0.00 | 14 | 1015.2 |
| 20260903065329 | 76 | 68 | 4.0 | 5.0 | 0.00 | 0.00 | 0.00 | 15 | 1015.0 |
| 20260903064413 | 75 | 61 | 2.0 | 5.0 | 0.00 | 0.00 | 0.00 | 16 | 1015.1 |
| 20260903063412 | 76 | 121 | 0.0 | 2.0 | 0.00 | 0.00 | 0.00 | 15 | 1014.9 |
| 20260903062414 | 76 | 67 | 2.0 | 4.0 | 0.00 | 0.00 | 0.00 | 16 | 1015.0 |
| 20260903060427 | 77 | 47 | 3.0 | 4.0 | 0.00 | 0.00 | 0.00 | 15 | 1014.7 |
| 20260903055413 | 77 | 67 | 2.0 | 3.0 | 0.00 | 0.00 | 0.00 | 15 | 1014.9 |
| 20260903055314 | 77 | 67 | 2.0 | 3.0 | 0.00 | 0.00 | 0.00 | 15 | 1014.9 |
| 20260903054333 | 76 | 90 | 2.0 | 3.0 | 0.00 | 0.00 | 0.00 | 15 | 1014.8 |
| 20260903053430 | 74 | 142 | 1.0 | 5.0 | 0.00 | 0.00 | 0.00 | 18 | 1014.8 |
| 20260903052530 | 74 | 270 | 0.0 | 0.0 | 0.00 | 0.00 | 0.00 | 18 | 1014.7 |
| 20260903051515 | 75 | 273 | 1.0 | 3.0 | 0.00 | 0.00 | 0.00 | 18 | 1014.7 |
| 20260903050515 | 76 | 63 | 2.0 | 3.0 | 0.00 | 0.00 | 0.00 | 17 | 1014.7 |
| 20260903045613 | 76 | 27 | 0.0 | 3.0 | 0.00 | 0.00 | 0.00 | 17 | 1014.6 |
| 20260903044615 | 77 | 247 | 0.0 | 0.0 | 0.00 | 0.00 | 0.00 | 16 | 1014.6 |
| 20260903043629 | 79 | 234 | 0.0 | 0.0 | 0.00 | 0.00 | 0.00 | 13 | 1014.5 |
| 20260903042716 | 79 | 292 | 3.0 | 4.0 | 0.00 | 0.00 | 0.00 | 14 | 1014.6 |
| 20260903041715 | 80 | 107 | 0.0 | 0.0 | 0.00 | 0.00 | 0.00 | 12 | 1014.4 |
| 20260903041631 | 80 | 112 | 0.0 | 0.0 | 0.00 | 0.00 | 0.00 | 13 | 1014.3 |
| 20260903035716 | 79 | 292 | 0.0 | 0.0 | 0.00 | 0.00 | 0.00 | 15 | 1014.1 |
| 20260903034730 | 80 | 292 | 0.0 | 1.0 | 0.00 | 0.00 | 0.00 | 13 | 1013.9 |
| 20260903032913 | 82 | 292 | 3.0 | 4.0 | 0.00 | 0.00 | 0.00 | 11 | 1013.9 |
| 20260903031914 | 83 | 202 | 0.0 | 2.0 | 0.00 | 0.00 | 0.00 | 10 | 1013.8 |
| 20260903025929 | 84 | 246 | 3.0 | 4.0 | 0.00 | 0.00 | 0.00 | 8 | 1013.7 |
| 20260903023913 | 85 | 240 | 4.0 | 5.0 | 0.00 | 0.00 | 0.00 | 9 | 1013.6 |
| 20260903022916 | 86 | 224 | 5.0 | 7.0 | 0.00 | 0.00 | 0.00 | 8 | 1013.5 |
| 20260903021929 | 87 | 232 | 6.0 | 8.0 | 0.00 | 0.00 | 0.00 | 8 | 1013.4 |
| 20260903021013 | 87 | 239 | 6.0 | 11.0 | 0.00 | 0.00 | 0.00 | 8 | 1013.3 |
| 20260903015016 | 88 | 245 | 4.0 | 7.0 | 0.00 | 0.00 | 0.00 | 7 | 1013.1 |
| 20260903013114 | 90 | 240 | 5.0 | 13.0 | 0.00 | 0.00 | 0.00 | 7 | 1013.3 |
| 20260903012017 | 90 | 224 | 11.0 | 16.0 | 0.00 | 0.00 | 0.00 | 7 | 1013.3 |
| 20260903011114 | 90 | 241 | 11.0 | 18.0 | 0.00 | 0.00 | 0.00 | 7 | 1013.2 |
| 20260903010213 | 91 | 224 | 10.0 | 17.0 | 0.00 | 0.00 | 0.00 | 6 | 1013.2 |
| 20260903005215 | 91 | 239 | 6.0 | 8.0 | 0.00 | 0.00 | 0.00 | 7 | 1013.1 |
| 20260903004216 | 91 | 214 | 9.0 | 14.0 | 0.00 | 0.00 | 0.00 | 7 | 1013.2 |
| 20260903002228 | 92 | 241 | 6.0 | 10.0 | 0.00 | 0.00 | 0.00 | 8 | 1013.1 |
| 20260903001316 | 92 | 240 | 11.0 | 18.0 | 0.00 | 0.00 | 0.00 | 6 | 1013.1 |
| 20260903000317 | 92 | 227 | 15.0 | 23.0 | 0.00 | 0.00 | 0.00 | 7 | 1013.3 |
| 20260902235413 | 92 | 215 | 6.0 | 14.0 | 0.00 | 0.00 | 0.00 | 7 | 1013.3 |
| 20260902234431 | 91 | 237 | 9.0 | 14.0 | 0.00 | 0.00 | 0.00 | 8 | 1013.3 |
| 20260902233414 | 92 | 261 | 8.0 | 17.0 | 0.00 | 0.00 | 0.00 | 7 | 1013.4 |
| 20260902231513 | 92 | 238 | 10.0 | 13.0 | 0.00 | 0.00 | 0.00 | 7 | 1013.5 |
| 20260902230530 | 92 | 251 | 7.0 | 13.0 | 0.00 | 0.00 | 0.00 | 6 | 1013.8 |
| 20260902225617 | 92 | 233 | 11.0 | 20.0 | 0.00 | 0.00 | 0.00 | 7 | 1013.7 |
| 20260902224629 | 93 | 226 | 8.0 | 11.0 | 0.00 | 0.00 | 0.00 | 6 | 1013.7 |
| 20260902222731 | 92 | 217 | 12.0 | 20.0 | 0.00 | 0.00 | 0.00 | 7 | 1014.0 |
| 20260902221729 | 92 | 233 | 6.0 | 9.0 | 0.00 | 0.00 | 0.00 | 6 | 1014.1 |
| 20260902220729 | 93 | 215 | 12.0 | 18.0 | 0.00 | 0.00 | 0.00 | 7 | 1014.4 |
| 20260902215815 | 92 | 237 | 9.0 | 13.0 | 0.00 | 0.00 | 0.00 | 9 | 1014.4 |
| 20260902214833 | 91 | 216 | 7.0 | 11.0 | 0.00 | 0.00 | 0.00 | 9 | 1014.4 |
| 20260902213829 | 91 | 226 | 11.0 | 18.0 | 0.00 | 0.00 | 0.00 | 9 | 1014.7 |
| 20260902212814 | 91 | 235 | 12.0 | 20.0 | 0.00 | 0.00 | 0.00 | 11 | 1014.9 |
| 20260902210913 | 92 | 175 | 9.0 | 14.0 | 0.00 | 0.00 | 0.00 | 11 | 1014.9 |
| 20260902203914 | 92 | 218 | 12.0 | 18.0 | 0.00 | 0.00 | 0.00 | 11 | 1015.6 |
| 20260902203816 | 92 | 220 | 9.0 | 14.0 | 0.00 | 0.00 | 0.00 | 10 | 1015.4 |
| 20260902202912 | 90 | 217 | 8.0 | 17.0 | 0.00 | 0.00 | 0.00 | 12 | 1015.4 |